Time,TemperatureF,DewpointF,PressureIn,WindDirection,WindDirectionDegrees,WindSpeedMPH,WindSpeedGustMPH,Humidity,HourlyPrecipIn,Conditions,Clouds,dailyrainin,SoftwareType,DateUTC
2013-09-01 00:02:00,60.6,57.4,29.95,West,269,8.1,10.1,89,0.00,,,0.00,meteobridge,2013-09-01 07:02:00,
2013-09-01 00:08:00,60.6,57.4,29.96,West,266,4.0,8.9,89,0.00,,,0.00,meteobridge,2013-09-01 07:08:00,
2013-09-01 00:14:00,60.4,56.8,29.96,SW,231,4.0,6.0,88,0.00,,,0.00,meteobridge,2013-09-01 07:14:00,
2013-09-01 00:20:00,60.6,57.0,29.95,West,278,0.9,6.0,88,0.00,,,0.00,meteobridge,2013-09-01 07:20:00,
2013-09-01 00:26:00,60.6,57.0,29.96,WSW,256,6.0,6.9,88,0.00,,,0.00,meteobridge,2013-09-01 07:26:00,
2013-09-01 00:32:00,60.6,57.0,29.95,West,261,2.9,6.0,88,0.00,,,0.00,meteobridge,2013-09-01 07:32:00,
2013-09-01 00:39:00,60.6,57.0,29.96,SW,226,2.0,6.0,88,0.00,,,0.00,meteobridge,2013-09-01 07:39:00,
2013-09-01 00:44:00,60.8,56.8,29.95,SSW,213,4.0,6.0,87,0.00,,,0.00,meteobridge,2013-09-01 07:44:00,
2013-09-01 00:51:00,60.6,56.7,29.96,SW,233,6.0,11.0,87,0.00,,,0.00,meteobridge,2013-09-01 07:51:00,
2013-09-01 00:57:00,60.6,56.7,29.96,West,259,6.0,6.0,87,0.00,,,0.00,meteobridge,2013-09-01 07:57:00,
2013-09-01 01:03:00,60.6,56.7,29.96,South,186,4.9,8.1,87,0.00,,,0.00,meteobridge,2013-09-01 08:03:00,
2013-09-01 01:09:00,60.6,56.7,29.96,WSW,245,6.9,11.0,87,0.00,,,0.00,meteobridge,2013-09-01 08:09:00,
2013-09-01 01:15:00,60.4,56.5,29.96,WSW,245,4.0,12.1,87,0.00,,,0.00,meteobridge,2013-09-01 08:15:00,
2013-09-01 01:21:00,60.4,56.5,29.96,WSW,257,4.9,10.1,87,0.00,,,0.00,meteobridge,2013-09-01 08:21:00,
2013-09-01 01:27:00,60.4,56.5,29.95,West,270,4.9,13.0,87,0.00,,,0.00,meteobridge,2013-09-01 08:27:00,
2013-09-01 01:33:00,60.3,56.3,29.95,WSW,249,12.1,12.1,87,0.00,,,0.00,meteobridge,2013-09-01 08:33:00,
2013-09-01 01:39:00,60.3,56.7,29.95,WSW,252,8.1,14.1,88,0.00,,,0.00,meteobridge,2013-09-01 08:39:00,
2013-09-01 01:45:00,60.3,56.7,29.95,SSW,211,6.0,8.1,88,0.00,,,0.00,meteobridge,2013-09-01 08:45:00,
2013-09-01 01:51:00,60.1,56.5,29.95,West,274,6.9,8.1,88,0.00,,,0.00,meteobridge,2013-09-01 08:51:00,
2013-09-01 01:57:00,60.1,56.5,29.94,WSW,257,4.9,13.0,88,0.00,,,0.00,meteobridge,2013-09-01 08:57:00,
2013-09-01 02:03:00,60.1,56.5,29.95,West,259,4.0,6.9,88,0.00,,,0.00,meteobridge,2013-09-01 09:03:00,
2013-09-01 02:09:00,60.3,56.7,29.95,West,266,2.9,6.9,88,0.00,,,0.00,meteobridge,2013-09-01 09:09:00,
2013-09-01 02:15:00,60.3,56.7,29.95,WNW,297,2.9,10.1,88,0.00,,,0.00,meteobridge,2013-09-01 09:15:00,
2013-09-01 02:21:00,60.3,56.7,29.95,NW,305,4.0,4.0,88,0.00,,,0.00,meteobridge,2013-09-01 09:21:00,
2013-09-01 02:27:00,60.3,56.7,29.95,WNW,289,4.0,6.0,88,0.00,,,0.00,meteobridge,2013-09-01 09:27:00,
2013-09-01 02:33:00,60.3,56.7,29.94,WNW,285,6.0,6.9,88,0.00,,,0.00,meteobridge,2013-09-01 09:33:00,
2013-09-01 02:39:00,60.3,57.0,29.95,West,265,4.0,6.9,89,0.00,,,0.00,meteobridge,2013-09-01 09:39:00,
2013-09-01 02:45:00,60.3,56.7,29.95,West,266,6.0,6.9,88,0.00,,,0.00,meteobridge,2013-09-01 09:45:00,
2013-09-01 02:51:00,60.4,56.8,29.95,West,266,2.9,6.9,88,0.00,,,0.00,meteobridge,2013-09-01 09:51:00,
2013-09-01 02:57:00,60.4,56.5,29.94,WNW,295,2.9,6.0,87,0.00,,,0.00,meteobridge,2013-09-01 09:57:00,
2013-09-01 03:03:00,60.4,56.5,29.94,WNW,293,0.9,6.9,87,0.00,,,0.00,meteobridge,2013-09-01 10:03:00,
2013-09-01 03:09:00,60.4,56.5,29.94,WNW,288,4.0,4.0,87,0.00,,,0.00,meteobridge,2013-09-01 10:09:00,
2013-09-01 03:15:00,60.4,56.5,29.94,SSW,213,2.0,4.9,87,0.00,,,0.00,meteobridge,2013-09-01 10:15:00,
2013-09-01 03:21:00,60.3,56.3,29.94,West,274,2.0,4.9,87,0.00,,,0.00,meteobridge,2013-09-01 10:21:00,
2013-09-01 03:27:00,60.3,56.3,29.94,West,262,2.9,6.9,87,0.00,,,0.00,meteobridge,2013-09-01 10:27:00,
2013-09-01 03:33:00,60.3,56.3,29.94,SW,227,6.0,8.9,87,0.00,,,0.00,meteobridge,2013-09-01 10:33:00,
2013-09-01 03:39:00,60.1,56.5,29.94,WSW,252,0.9,8.1,88,0.00,,,0.00,meteobridge,2013-09-01 10:39:00,
2013-09-01 03:45:00,60.3,56.7,29.94,WSW,241,6.9,6.9,88,0.00,,,0.00,meteobridge,2013-09-01 10:45:00,
2013-09-01 03:51:00,60.3,56.3,29.94,West,269,4.0,4.9,87,0.00,,,0.00,meteobridge,2013-09-01 10:51:00,
2013-09-01 03:57:00,60.3,56.3,29.94,West,265,6.9,6.9,87,0.00,,,0.00,meteobridge,2013-09-01 10:57:00,
2013-09-01 04:03:00,60.3,56.3,29.93,WSW,255,2.0,4.9,87,0.00,,,0.00,meteobridge,2013-09-01 11:03:00,
2013-09-01 04:09:00,60.3,56.3,29.93,WSW,258,4.0,4.9,87,0.00,,,0.00,meteobridge,2013-09-01 11:09:00,
2013-09-01 04:16:00,60.3,56.3,29.93,WNW,285,2.9,6.9,87,0.00,,,0.00,meteobridge,2013-09-01 11:16:00,
2013-09-01 04:22:00,60.3,56.3,29.93,SSW,211,2.0,8.1,87,0.00,,,0.00,meteobridge,2013-09-01 11:22:00,
2013-09-01 04:28:00,60.3,56.3,29.93,WNW,282,4.0,4.9,87,0.00,,,0.00,meteobridge,2013-09-01 11:28:00,
2013-09-01 04:34:00,60.3,56.3,29.93,West,277,4.9,6.0,87,0.00,,,0.00,meteobridge,2013-09-01 11:34:00,
2013-09-01 04:40:00,60.3,56.3,29.93,WNW,284,0.9,6.9,87,0.00,,,0.00,meteobridge,2013-09-01 11:40:00,
2013-09-01 04:46:00,60.3,56.3,29.93,West,279,4.0,6.0,87,0.00,,,0.00,meteobridge,2013-09-01 11:46:00,
2013-09-01 04:52:00,60.3,56.1,29.93,WSW,256,4.0,4.0,86,0.00,,,0.00,meteobridge,2013-09-01 11:52:00,
2013-09-01 04:58:00,60.4,56.3,29.93,West,260,2.9,6.9,86,0.00,,,0.00,meteobridge,2013-09-01 11:58:00,
2013-09-01 05:04:00,60.4,56.3,29.93,West,269,6.9,8.1,86,0.00,,,0.00,meteobridge,2013-09-01 12:04:00,
2013-09-01 05:10:00,60.4,56.3,29.94,West,278,0.0,4.9,86,0.00,,,0.00,meteobridge,2013-09-01 12:10:00,
2013-09-01 05:16:00,60.4,56.3,29.93,WSW,256,2.9,4.0,86,0.00,,,0.00,meteobridge,2013-09-01 12:16:00,
2013-09-01 05:22:00,60.4,56.3,29.93,West,273,0.0,2.0,86,0.00,,,0.00,meteobridge,2013-09-01 12:22:00,
2013-09-01 05:28:00,60.4,55.9,29.94,WSW,245,0.0,0.9,85,0.00,,,0.00,meteobridge,2013-09-01 12:28:00,
2013-09-01 05:34:00,60.4,55.9,29.94,West,269,0.9,4.0,85,0.00,,,0.00,meteobridge,2013-09-01 12:34:00,
2013-09-01 05:40:00,60.4,55.6,29.94,West,271,0.9,4.9,84,0.00,,,0.00,meteobridge,2013-09-01 12:40:00,
2013-09-01 05:47:00,60.4,55.6,29.94,WSW,252,0.9,0.9,84,0.00,,,0.00,meteobridge,2013-09-01 12:47:00,
2013-09-01 05:53:00,60.4,55.6,29.94,WSW,255,0.0,0.9,84,0.00,,,0.00,meteobridge,2013-09-01 12:53:00,
2013-09-01 05:59:00,60.6,55.8,29.94,West,274,2.9,2.9,84,0.00,,,0.00,meteobridge,2013-09-01 12:59:00,
2013-09-01 06:05:00,60.6,55.4,29.94,West,272,0.0,0.9,83,0.00,,,0.00,meteobridge,2013-09-01 13:05:00,
2013-09-01 06:11:00,60.6,55.4,29.94,West,264,0.0,0.9,83,0.00,,,0.00,meteobridge,2013-09-01 13:11:00,
2013-09-01 06:17:00,60.4,55.6,29.94,West,264,0.0,0.0,84,0.00,,,0.00,meteobridge,2013-09-01 13:17:00,
2013-09-01 06:23:00,60.3,55.4,29.94,West,263,0.0,0.0,84,0.00,,,0.00,meteobridge,2013-09-01 13:23:00,
2013-09-01 06:29:00,60.1,55.2,29.94,SW,225,0.0,2.0,84,0.00,,,0.00,meteobridge,2013-09-01 13:29:00,
2013-09-01 06:35:00,60.3,55.4,29.94,SSW,207,0.0,2.0,84,0.00,,,0.00,meteobridge,2013-09-01 13:35:00,
2013-09-01 06:41:00,60.3,55.4,29.94,SW,234,0.0,2.0,84,0.00,,,0.00,meteobridge,2013-09-01 13:41:00,
2013-09-01 06:48:00,60.4,55.2,29.95,SW,233,0.0,2.9,83,0.00,,,0.00,meteobridge,2013-09-01 13:48:00,
2013-09-01 06:54:00,60.4,55.2,29.95,SW,214,2.9,2.9,83,0.00,,,0.00,meteobridge,2013-09-01 13:54:00,
2013-09-01 07:00:00,60.8,55.2,29.95,SSW,193,2.0,2.9,82,0.00,,,0.00,meteobridge,2013-09-01 14:00:00,
2013-09-01 07:06:00,61.0,55.4,29.95,SW,221,0.9,4.0,82,0.00,,,0.00,meteobridge,2013-09-01 14:06:00,
2013-09-01 07:12:00,61.2,55.2,29.95,SW,229,0.0,2.9,81,0.00,,,0.00,meteobridge,2013-09-01 14:12:00,
2013-09-01 07:18:00,61.5,55.2,29.96,West,265,2.0,4.0,80,0.00,,,0.00,meteobridge,2013-09-01 14:18:00,
2013-09-01 07:24:00,61.9,55.2,29.96,SW,228,0.9,2.0,79,0.00,,,0.00,meteobridge,2013-09-01 14:24:00,
2013-09-01 07:30:00,62.4,55.8,29.96,West,265,2.0,2.9,79,0.00,,,0.00,meteobridge,2013-09-01 14:30:00,
2013-09-01 07:36:00,62.6,55.6,29.96,West,263,2.0,8.9,78,0.00,,,0.00,meteobridge,2013-09-01 14:36:00,
2013-09-01 07:42:00,62.4,55.8,29.96,SW,232,0.9,2.9,79,0.00,,,0.00,meteobridge,2013-09-01 14:42:00,
2013-09-01 07:48:00,62.4,55.8,29.96,West,270,6.9,8.9,79,0.00,,,0.00,meteobridge,2013-09-01 14:48:00,
2013-09-01 07:54:00,62.4,56.1,29.96,West,280,4.0,6.0,80,0.00,,,0.00,meteobridge,2013-09-01 14:54:00,
2013-09-01 08:00:00,62.4,56.1,29.96,West,274,4.0,8.1,80,0.00,,,0.00,meteobridge,2013-09-01 15:00:00,
2013-09-01 08:06:00,62.8,56.5,29.96,West,263,8.1,8.1,80,0.00,,,0.00,meteobridge,2013-09-01 15:06:00,
2013-09-01 08:12:00,63.3,56.7,29.96,West,262,4.0,6.9,79,0.00,,,0.00,meteobridge,2013-09-01 15:12:00,
2013-09-01 08:18:00,64.0,57.0,29.96,WSW,252,0.9,4.9,78,0.00,,,0.00,meteobridge,2013-09-01 15:18:00,
2013-09-01 08:24:00,64.8,57.0,29.96,West,281,4.0,8.1,76,0.00,,,0.00,meteobridge,2013-09-01 15:24:00,
2013-09-01 08:30:00,65.1,57.0,29.96,West,269,2.9,6.9,75,0.00,,,0.00,meteobridge,2013-09-01 15:30:00,
2013-09-01 08:36:00,65.1,57.0,29.95,SW,234,2.9,6.9,75,0.00,,,0.00,meteobridge,2013-09-01 15:36:00,
2013-09-01 08:42:00,65.1,57.0,29.95,West,279,6.9,6.9,75,0.00,,,0.00,meteobridge,2013-09-01 15:42:00,
2013-09-01 08:48:00,65.5,57.0,29.95,West,272,4.9,6.9,74,0.00,,,0.00,meteobridge,2013-09-01 15:48:00,
2013-09-01 08:54:00,66.0,57.6,29.95,West,270,2.9,8.1,74,0.00,,,0.00,meteobridge,2013-09-01 15:54:00,
2013-09-01 09:00:00,66.4,57.9,29.95,NW,304,2.9,8.1,74,0.00,,,0.00,meteobridge,2013-09-01 16:00:00,
2013-09-01 09:06:00,66.7,58.1,29.95,WNW,292,2.0,6.9,74,0.00,,,0.00,meteobridge,2013-09-01 16:06:00,
2013-09-01 09:12:00,67.6,58.3,29.95,West,265,6.9,8.1,72,0.00,,,0.00,meteobridge,2013-09-01 16:12:00,
2013-09-01 09:18:00,68.2,58.5,29.95,SW,226,4.9,8.1,71,0.00,,,0.00,meteobridge,2013-09-01 16:18:00,
2013-09-01 09:24:00,68.2,58.1,29.96,West,259,8.1,11.0,70,0.00,,,0.00,meteobridge,2013-09-01 16:24:00,
2013-09-01 09:30:00,68.7,58.1,29.96,SW,217,6.0,11.0,69,0.00,,,0.00,meteobridge,2013-09-01 16:30:00,
2013-09-01 09:36:00,68.9,57.9,29.96,WNW,283,2.9,6.9,68,0.00,,,0.00,meteobridge,2013-09-01 16:36:00,
2013-09-01 09:42:00,69.6,58.1,29.96,West,265,4.9,6.9,67,0.00,,,0.00,meteobridge,2013-09-01 16:42:00,
2013-09-01 09:48:00,70.2,57.9,29.96,WNW,288,6.9,6.9,65,0.00,,,0.00,meteobridge,2013-09-01 16:48:00,
2013-09-01 09:54:00,70.2,57.0,29.96,West,262,4.9,8.1,63,0.00,,,0.00,meteobridge,2013-09-01 16:54:00,
2013-09-01 10:01:00,70.3,57.6,29.96,WSW,242,2.9,8.9,64,0.00,,,0.00,meteobridge,2013-09-01 17:01:00,
2013-09-01 10:07:00,70.7,57.6,29.96,WNW,288,4.9,4.9,63,0.00,,,0.00,meteobridge,2013-09-01 17:07:00,
2013-09-01 10:13:00,70.9,56.8,29.96,West,264,4.0,8.1,61,0.00,,,0.00,meteobridge,2013-09-01 17:13:00,
2013-09-01 10:19:00,71.1,57.4,29.96,WNW,289,2.9,8.9,62,0.00,,,0.00,meteobridge,2013-09-01 17:19:00,
2013-09-01 10:25:00,71.4,57.7,29.95,West,275,2.9,8.9,62,0.00,,,0.00,meteobridge,2013-09-01 17:25:00,
2013-09-01 10:31:00,71.8,57.2,29.95,WSW,244,6.9,10.1,60,0.00,,,0.00,meteobridge,2013-09-01 17:31:00,
2013-09-01 10:37:00,72.7,57.6,29.95,West,266,8.1,11.0,59,0.00,,,0.00,meteobridge,2013-09-01 17:37:00,
2013-09-01 10:43:00,73.0,57.4,29.95,West,259,4.9,10.1,58,0.00,,,0.00,meteobridge,2013-09-01 17:43:00,
2013-09-01 10:49:00,73.6,56.8,29.95,WSW,255,4.9,6.9,56,0.00,,,0.00,meteobridge,2013-09-01 17:49:00,
2013-09-01 10:55:00,74.5,57.7,29.95,WSW,254,6.0,8.1,56,0.00,,,0.00,meteobridge,2013-09-01 17:55:00,
2013-09-01 11:01:00,74.7,56.8,29.95,West,263,4.0,8.9,54,0.00,,,0.00,meteobridge,2013-09-01 18:01:00,
2013-09-01 11:07:00,75.4,55.4,29.94,SW,223,2.9,8.9,50,0.00,,,0.00,meteobridge,2013-09-01 18:07:00,
2013-09-01 11:13:00,75.9,55.4,29.94,West,259,4.9,8.1,49,0.00,,,0.00,meteobridge,2013-09-01 18:13:00,
2013-09-01 11:19:00,75.9,54.3,29.94,West,271,2.9,8.1,47,0.00,,,0.00,meteobridge,2013-09-01 18:19:00,
2013-09-01 11:25:00,75.9,53.6,29.94,WSW,240,8.1,11.0,46,0.00,,,0.00,meteobridge,2013-09-01 18:25:00,
2013-09-01 11:31:00,75.7,54.7,29.94,WSW,257,4.9,11.0,48,0.00,,,0.00,meteobridge,2013-09-01 18:31:00,
2013-09-01 11:37:00,75.7,55.2,29.94,WSW,256,8.9,13.0,49,0.00,,,0.00,meteobridge,2013-09-01 18:37:00,
2013-09-01 11:43:00,76.3,55.2,29.94,West,266,6.0,10.1,48,0.00,,,0.00,meteobridge,2013-09-01 18:43:00,
2013-09-01 11:49:00,76.1,54.3,29.94,West,270,6.0,11.0,47,0.00,,,0.00,meteobridge,2013-09-01 18:49:00,
2013-09-01 11:55:00,76.5,55.4,29.94,WSW,238,8.9,11.0,48,0.00,,,0.00,meteobridge,2013-09-01 18:55:00,
2013-09-01 12:01:00,77.2,55.9,29.94,West,264,4.9,8.9,48,0.00,,,0.00,meteobridge,2013-09-01 19:01:00,
2013-09-01 12:07:00,76.8,54.5,29.94,West,266,6.0,10.1,46,0.00,,,0.00,meteobridge,2013-09-01 19:07:00,
2013-09-01 12:13:00,77.4,55.6,29.93,WSW,253,4.9,10.1,47,0.00,,,0.00,meteobridge,2013-09-01 19:13:00,
2013-09-01 12:19:00,77.4,55.0,29.93,West,263,14.1,15.0,46,0.00,,,0.00,meteobridge,2013-09-01 19:19:00,
2013-09-01 12:25:00,77.5,55.0,29.93,West,267,2.9,8.1,46,0.00,,,0.00,meteobridge,2013-09-01 19:25:00,
2013-09-01 12:31:00,77.5,55.8,29.93,West,265,8.1,11.0,47,0.00,,,0.00,meteobridge,2013-09-01 19:31:00,
2013-09-01 12:37:00,78.3,55.2,29.92,WSW,245,6.0,11.0,45,0.00,,,0.00,meteobridge,2013-09-01 19:37:00,
2013-09-01 12:43:00,78.3,55.2,29.92,WNW,298,6.9,8.1,45,0.00,,,0.00,meteobridge,2013-09-01 19:43:00,
2013-09-01 12:49:00,78.4,54.7,29.92,West,269,8.1,12.1,44,0.00,,,0.00,meteobridge,2013-09-01 19:49:00,
2013-09-01 12:55:00,78.8,55.0,29.92,West,278,6.9,11.0,44,0.00,,,0.00,meteobridge,2013-09-01 19:55:00,
2013-09-01 13:01:00,79.3,55.6,29.92,WSW,254,4.9,13.0,44,0.00,,,0.00,meteobridge,2013-09-01 20:01:00,
2013-09-01 13:07:00,79.5,54.5,29.92,West,265,6.9,11.0,42,0.00,,,0.00,meteobridge,2013-09-01 20:07:00,
2013-09-01 13:13:00,79.5,55.0,29.92,WNW,283,8.1,10.1,43,0.00,,,0.00,meteobridge,2013-09-01 20:13:00,
2013-09-01 13:19:00,80.6,55.4,29.91,West,268,6.0,8.1,42,0.00,,,0.00,meteobridge,2013-09-01 20:19:00,
2013-09-01 13:25:00,80.8,54.9,29.91,WSW,248,8.1,12.1,41,0.00,,,0.00,meteobridge,2013-09-01 20:25:00,
2013-09-01 13:31:00,80.4,55.2,29.92,WNW,282,12.1,13.0,42,0.00,,,0.00,meteobridge,2013-09-01 20:31:00,
2013-09-01 13:37:00,80.2,55.0,29.91,SW,224,6.0,11.0,42,0.00,,,0.00,meteobridge,2013-09-01 20:37:00,
2013-09-01 13:43:00,80.6,54.0,29.91,West,271,6.9,12.1,40,0.00,,,0.00,meteobridge,2013-09-01 20:43:00,
2013-09-01 13:49:00,81.0,55.0,29.91,WSW,242,6.0,10.1,41,0.00,,,0.00,meteobridge,2013-09-01 20:49:00,
2013-09-01 13:55:00,80.8,54.9,29.91,WSW,248,6.9,15.0,41,0.00,,,0.00,meteobridge,2013-09-01 20:55:00,
2013-09-01 14:01:00,81.0,55.0,29.91,SW,229,6.9,13.0,41,0.00,,,0.00,meteobridge,2013-09-01 21:01:00,
2013-09-01 14:07:00,80.4,55.2,29.91,WSW,244,6.0,12.1,42,0.00,,,0.00,meteobridge,2013-09-01 21:07:00,
2013-09-01 14:13:00,81.0,56.3,29.91,West,262,8.1,10.1,43,0.00,,,0.00,meteobridge,2013-09-01 21:13:00,
2013-09-01 14:20:00,80.2,54.3,29.91,West,275,10.1,13.0,41,0.00,,,0.00,meteobridge,2013-09-01 21:20:00,
2013-09-01 14:26:00,80.1,55.6,29.90,West,262,6.9,12.1,43,0.00,,,0.00,meteobridge,2013-09-01 21:26:00,
2013-09-01 14:32:00,80.2,55.8,29.90,West,267,10.1,11.0,43,0.00,,,0.00,meteobridge,2013-09-01 21:32:00,
2013-09-01 14:38:00,80.2,55.0,29.90,SW,219,8.9,11.0,42,0.00,,,0.00,meteobridge,2013-09-01 21:38:00,
2013-09-01 14:44:00,81.0,55.0,29.90,SW,231,8.9,12.1,41,0.00,,,0.00,meteobridge,2013-09-01 21:44:00,
2013-09-01 14:50:00,81.1,55.2,29.90,West,262,4.9,8.9,41,0.00,,,0.00,meteobridge,2013-09-01 21:50:00,
2013-09-01 14:56:00,82.2,54.9,29.89,SSW,203,4.9,11.0,39,0.00,,,0.00,meteobridge,2013-09-01 21:56:00,
2013-09-01 15:02:00,81.7,55.8,29.89,West,269,6.0,12.1,41,0.00,,,0.00,meteobridge,2013-09-01 22:02:00,
2013-09-01 15:08:00,81.7,55.8,29.89,SSE,165,6.9,11.0,41,0.00,,,0.00,meteobridge,2013-09-01 22:08:00,
2013-09-01 15:14:00,81.5,55.6,29.89,West,273,6.0,11.0,41,0.00,,,0.00,meteobridge,2013-09-01 22:14:00,
2013-09-01 15:20:00,81.9,55.9,29.89,WNW,283,11.0,11.0,41,0.00,,,0.00,meteobridge,2013-09-01 22:20:00,
2013-09-01 15:26:00,81.3,55.4,29.89,West,262,8.1,14.1,41,0.00,,,0.00,meteobridge,2013-09-01 22:26:00,
2013-09-01 15:32:00,81.3,55.4,29.89,WSW,245,8.9,11.0,41,0.00,,,0.00,meteobridge,2013-09-01 22:32:00,
2013-09-01 15:38:00,81.1,55.2,29.88,West,279,8.9,13.0,41,0.00,,,0.00,meteobridge,2013-09-01 22:38:00,
2013-09-01 15:44:00,80.2,53.8,29.89,SW,230,11.0,13.0,40,0.00,,,0.00,meteobridge,2013-09-01 22:44:00,
2013-09-01 15:50:00,80.2,53.8,29.89,West,268,6.0,10.1,40,0.00,,,0.00,meteobridge,2013-09-01 22:50:00,
2013-09-01 15:56:00,80.4,54.0,29.88,WSW,250,4.9,6.9,40,0.00,,,0.00,meteobridge,2013-09-01 22:56:00,
2013-09-01 16:02:00,80.1,53.6,29.88,WSW,246,6.9,11.0,40,0.00,,,0.00,meteobridge,2013-09-01 23:02:00,
2013-09-01 16:08:00,79.9,54.1,29.88,WSW,252,8.1,10.1,41,0.00,,,0.00,meteobridge,2013-09-01 23:08:00,
2013-09-01 16:14:00,80.1,54.3,29.88,SSW,201,2.9,8.1,41,0.00,,,0.00,meteobridge,2013-09-01 23:14:00,
2013-09-01 16:20:00,80.1,54.3,29.88,SW,233,8.1,11.0,41,0.00,,,0.00,meteobridge,2013-09-01 23:20:00,
2013-09-01 16:26:00,79.3,54.3,29.88,SW,233,4.9,13.0,42,0.00,,,0.00,meteobridge,2013-09-01 23:26:00,
2013-09-01 16:32:00,79.5,55.0,29.88,SSW,207,11.0,13.0,43,0.00,,,0.00,meteobridge,2013-09-01 23:32:00,
2013-09-01 16:38:00,79.2,54.7,29.88,WSW,243,4.0,12.1,43,0.00,,,0.00,meteobridge,2013-09-01 23:38:00,
2013-09-01 16:44:00,79.2,54.7,29.88,West,281,4.9,10.1,43,0.00,,,0.00,meteobridge,2013-09-01 23:44:00,
2013-09-01 16:50:00,79.3,55.6,29.88,SW,221,6.9,8.1,44,0.00,,,0.00,meteobridge,2013-09-01 23:50:00,
2013-09-01 16:56:00,78.6,55.6,29.88,West,276,8.1,12.1,45,0.00,,,0.00,meteobridge,2013-09-01 23:56:00,
2013-09-01 17:02:00,77.9,55.4,29.88,West,276,2.9,12.1,46,0.00,,,0.00,meteobridge,2013-09-02 00:02:00,
2013-09-01 17:08:00,78.3,55.8,29.88,SSW,208,6.0,8.9,46,0.00,,,0.00,meteobridge,2013-09-02 00:08:00,
2013-09-01 17:14:00,78.4,56.5,29.88,NNW,347,6.0,12.1,47,0.00,,,0.00,meteobridge,2013-09-02 00:14:00,
2013-09-01 17:20:00,77.7,56.5,29.89,SW,235,4.9,15.0,48,0.00,,,0.00,meteobridge,2013-09-02 00:20:00,
2013-09-01 17:26:00,77.2,57.0,29.89,West,266,2.9,8.9,50,0.00,,,0.00,meteobridge,2013-09-02 00:26:00,
2013-09-01 17:32:00,75.7,56.3,29.89,SW,235,10.1,15.0,51,0.00,,,0.00,meteobridge,2013-09-02 00:32:00,
2013-09-01 17:38:00,73.9,56.3,29.89,West,279,12.1,15.0,54,0.00,,,0.00,meteobridge,2013-09-02 00:38:00,
2013-09-01 17:44:00,73.0,56.8,29.89,West,271,2.9,14.1,57,0.00,,,0.00,meteobridge,2013-09-02 00:44:00,
2013-09-01 17:50:00,72.5,56.8,29.89,WSW,243,11.0,13.0,58,0.00,,,0.00,meteobridge,2013-09-02 00:50:00,
2013-09-01 17:56:00,71.8,57.6,29.89,West,262,8.9,14.1,61,0.00,,,0.00,meteobridge,2013-09-02 00:56:00,
2013-09-01 18:02:00,71.2,57.9,29.89,WSW,255,11.0,17.9,63,0.00,,,0.00,meteobridge,2013-09-02 01:02:00,
2013-09-01 18:08:00,70.9,58.1,29.89,SW,219,8.9,13.0,64,0.00,,,0.00,meteobridge,2013-09-02 01:08:00,
2013-09-01 18:15:00,70.7,58.3,29.89,West,260,12.1,16.1,65,0.00,,,0.00,meteobridge,2013-09-02 01:15:00,
2013-09-01 18:21:00,70.3,58.8,29.89,SW,231,11.0,15.0,67,0.00,,,0.00,meteobridge,2013-09-02 01:21:00,
2013-09-01 18:27:00,70.3,59.7,29.89,WSW,239,4.0,8.9,69,0.00,,,0.00,meteobridge,2013-09-02 01:27:00,
2013-09-01 18:33:00,70.3,59.7,29.89,SW,214,6.0,10.1,69,0.00,,,0.00,meteobridge,2013-09-02 01:33:00,
2013-09-01 18:39:00,70.2,59.9,29.90,WNW,283,0.9,6.9,70,0.00,,,0.00,meteobridge,2013-09-02 01:39:00,
2013-09-01 18:45:00,70.0,60.1,29.90,SW,233,8.1,11.0,71,0.00,,,0.00,meteobridge,2013-09-02 01:45:00,
2013-09-01 18:51:00,69.6,60.3,29.90,WNW,293,2.9,8.1,72,0.00,,,0.00,meteobridge,2013-09-02 01:51:00,
2013-09-01 18:57:00,69.4,60.4,29.90,West,268,2.9,8.9,73,0.00,,,0.00,meteobridge,2013-09-02 01:57:00,
2013-09-01 19:03:00,69.3,60.6,29.90,SW,226,13.0,13.0,74,0.00,,,0.00,meteobridge,2013-09-02 02:03:00,
2013-09-01 19:09:00,69.1,60.8,29.91,North,6,6.9,6.9,75,0.00,,,0.00,meteobridge,2013-09-02 02:09:00,
2013-09-01 19:15:00,68.7,60.4,29.91,West,262,8.9,12.1,75,0.00,,,0.00,meteobridge,2013-09-02 02:15:00,
2013-09-01 19:21:00,68.5,60.3,29.91,WSW,250,8.9,10.1,75,0.00,,,0.00,meteobridge,2013-09-02 02:21:00,
2013-09-01 19:27:00,68.4,60.4,29.91,West,278,4.0,10.1,76,0.00,,,0.00,meteobridge,2013-09-02 02:27:00,
2013-09-01 19:33:00,68.4,60.8,29.91,West,266,10.1,10.1,77,0.00,,,0.00,meteobridge,2013-09-02 02:33:00,
2013-09-01 19:39:00,68.2,60.6,29.91,SW,222,4.0,6.9,77,0.00,,,0.00,meteobridge,2013-09-02 02:39:00,
2013-09-01 19:45:00,67.8,60.6,29.91,WSW,243,2.9,6.0,78,0.00,,,0.00,meteobridge,2013-09-02 02:45:00,
2013-09-01 19:51:00,67.6,60.6,29.91,WSW,245,4.0,11.0,78,0.00,,,0.00,meteobridge,2013-09-02 02:51:00,
2013-09-01 19:57:00,67.3,60.6,29.91,WSW,240,6.9,8.9,79,0.00,,,0.00,meteobridge,2013-09-02 02:57:00,
2013-09-01 20:03:00,67.3,60.6,29.92,SW,215,2.9,6.9,79,0.00,,,0.00,meteobridge,2013-09-02 03:03:00,
2013-09-01 20:09:00,66.9,60.6,29.92,SSW,209,6.9,8.1,80,0.00,,,0.00,meteobridge,2013-09-02 03:09:00,
2013-09-01 20:15:00,66.9,60.6,29.92,West,265,2.9,4.0,80,0.00,,,0.00,meteobridge,2013-09-02 03:15:00,
2013-09-01 20:21:00,66.7,60.8,29.92,SW,227,2.9,6.0,81,0.00,,,0.00,meteobridge,2013-09-02 03:21:00,
2013-09-01 20:27:00,66.7,60.8,29.92,WSW,239,4.9,6.0,81,0.00,,,0.00,meteobridge,2013-09-02 03:27:00,
2013-09-01 20:33:00,66.6,61.0,29.92,South,188,0.9,4.0,82,0.00,,,0.00,meteobridge,2013-09-02 03:33:00,
2013-09-01 20:39:00,66.4,60.8,29.92,SW,234,4.9,6.0,82,0.00,,,0.00,meteobridge,2013-09-02 03:39:00,
2013-09-01 20:45:00,66.2,60.8,29.93,SSW,207,0.9,0.9,83,0.00,,,0.00,meteobridge,2013-09-02 03:45:00,
2013-09-01 20:51:00,66.0,60.6,29.93,SSW,210,2.9,8.1,83,0.00,,,0.00,meteobridge,2013-09-02 03:51:00,
2013-09-01 20:57:00,66.0,60.6,29.93,West,264,0.9,4.0,83,0.00,,,0.00,meteobridge,2013-09-02 03:57:00,
2013-09-01 21:01:00,66.0,61.0,29.93,WSW,240,2.0,4.9,84,0.00,,,0.00,meteobridge,2013-09-02 04:01:00,
2013-09-01 21:03:00,65.8,60.8,29.93,WSW,238,2.0,6.0,84,0.00,,,0.00,meteobridge,2013-09-02 04:03:00,
2013-09-01 21:05:00,65.8,60.8,29.93,SW,224,2.9,6.0,84,0.00,,,0.00,meteobridge,2013-09-02 04:05:00,
2013-09-01 21:11:00,65.8,60.8,29.93,SW,225,4.9,8.9,84,0.00,,,0.00,meteobridge,2013-09-02 04:11:00,
2013-09-01 21:17:00,65.8,60.8,29.93,SSW,200,2.0,6.9,84,0.00,,,0.00,meteobridge,2013-09-02 04:17:00,
2013-09-01 21:23:00,65.8,60.8,29.94,SSW,208,2.9,4.9,84,0.00,,,0.00,meteobridge,2013-09-02 04:23:00,
2013-09-01 21:29:00,65.7,60.6,29.93,WSW,241,4.0,6.9,84,0.00,,,0.00,meteobridge,2013-09-02 04:29:00,
2013-09-01 21:36:00,65.7,60.6,29.94,SW,235,2.0,4.0,84,0.00,,,0.00,meteobridge,2013-09-02 04:36:00,
2013-09-01 21:42:00,65.8,60.8,29.94,SW,228,4.9,6.9,84,0.00,,,0.00,meteobridge,2013-09-02 04:42:00,
2013-09-01 21:48:00,65.7,60.6,29.94,WSW,258,4.9,6.9,84,0.00,,,0.00,meteobridge,2013-09-02 04:48:00,
2013-09-01 21:54:00,65.8,60.8,29.94,SSW,206,2.0,4.9,84,0.00,,,0.00,meteobridge,2013-09-02 04:54:00,
2013-09-01 22:00:00,65.8,60.8,29.94,WSW,238,4.0,10.1,84,0.00,,,0.00,meteobridge,2013-09-02 05:00:00,
2013-09-01 22:06:00,65.8,60.8,29.94,SW,219,4.9,4.9,84,0.00,,,0.00,meteobridge,2013-09-02 05:06:00,
2013-09-01 22:12:00,65.7,60.6,29.94,WSW,253,6.0,6.0,84,0.00,,,0.00,meteobridge,2013-09-02 05:12:00,
2013-09-01 22:18:00,65.7,61.0,29.94,SW,223,2.9,4.9,85,0.00,,,0.00,meteobridge,2013-09-02 05:18:00,
2013-09-01 22:24:00,65.7,61.0,29.94,SW,218,2.0,4.9,85,0.00,,,0.00,meteobridge,2013-09-02 05:24:00,
2013-09-01 22:30:00,65.7,60.6,29.94,West,259,2.9,4.9,84,0.00,,,0.00,meteobridge,2013-09-02 05:30:00,
2013-09-01 22:36:00,65.7,60.6,29.94,SSW,213,0.9,4.0,84,0.00,,,0.00,meteobridge,2013-09-02 05:36:00,
2013-09-01 22:42:00,65.7,60.6,29.94,WSW,247,4.0,4.0,84,0.00,,,0.00,meteobridge,2013-09-02 05:42:00,
2013-09-01 22:48:00,65.5,60.8,29.94,West,276,2.9,8.1,85,0.00,,,0.00,meteobridge,2013-09-02 05:48:00,
2013-09-01 22:54:00,65.5,60.8,29.94,SSW,209,0.9,2.9,85,0.00,,,0.00,meteobridge,2013-09-02 05:54:00,
2013-09-01 23:00:00,65.5,60.8,29.94,WSW,248,2.9,4.0,85,0.00,,,0.00,meteobridge,2013-09-02 06:00:00,
2013-09-01 23:06:00,65.3,60.6,29.94,West,264,4.9,6.0,85,0.00,,,0.00,meteobridge,2013-09-02 06:06:00,
2013-09-01 23:12:00,65.3,60.6,29.94,WNW,283,2.0,6.0,85,0.00,,,0.00,meteobridge,2013-09-02 06:12:00,
2013-09-01 23:18:00,65.1,60.4,29.94,West,259,2.9,8.1,85,0.00,,,0.00,meteobridge,2013-09-02 06:18:00,
2013-09-01 23:24:00,65.1,60.4,29.94,West,278,0.9,4.9,85,0.00,,,0.00,meteobridge,2013-09-02 06:24:00,
2013-09-01 23:30:00,65.1,60.4,29.94,SW,229,6.0,8.9,85,0.00,,,0.00,meteobridge,2013-09-02 06:30:00,
2013-09-01 23:36:00,65.1,60.4,29.94,West,268,4.0,6.9,85,0.00,,,0.00,meteobridge,2013-09-02 06:36:00,
2013-09-01 23:42:00,65.1,60.4,29.94,West,273,4.0,6.9,85,0.00,,,0.00,meteobridge,2013-09-02 06:42:00,
2013-09-01 23:48:00,65.1,60.4,29.94,West,262,4.9,8.1,85,0.00,,,0.00,meteobridge,2013-09-02 06:48:00,
2013-09-01 23:54:00,65.1,60.4,29.94,West,262,0.0,4.0,85,0.00,,,0.00,meteobridge,2013-09-02 06:54:00,